DW1520 Weather Reports


time (UTC)temp
F
wind
direction
speed
knots
gust
knots
rain 1hr
in
rain 24hr
in
rain mn
in
humidity
%
barometer
mb
20260509042505 59 288 0.9 1.7 0.00 0.00 0.00 38 1000.9
20260509042006 59 288 0.0 1.7 0.00 0.00 0.00 38 1000.8
20260509041505 59 290 0.9 2.6 0.00 0.00 0.00 38 1000.9
20260509041006 59 284 1.7 2.6 0.00 0.00 0.00 37 1000.9
20260509040506 60 281 0.9 1.7 0.00 0.00 0.00 37 1000.9
20260509040005 60 281 0.9 2.6 0.00 0.00 0.00 37 1000.9
20260509035505 60 281 0.9 1.7 0.00 0.00 0.00 37 1000.9
20260509035006 60 281 0.9 5.2 0.00 0.00 0.00 37 1000.9
20260509034006 59 270 0.9 5.2 0.00 0.00 0.00 39 1000.8
20260509033505 58 267 0.9 2.6 0.00 0.00 0.00 39 1000.8
20260509033006 58 245 0.0 1.7 0.00 0.00 0.00 41 1000.8
20260509032505 59 310 0.0 0.0 0.00 0.00 0.00 39 1000.7
20260509032005 59 310 0.0 0.0 0.00 0.00 0.00 39 1000.7
20260509031505 60 310 0.0 0.0 0.00 0.00 0.00 39 1000.6
20260509031006 60 310 0.0 0.0 0.00 0.00 0.00 37 1000.5
20260509030505 61 310 0.0 0.0 0.00 0.00 0.00 37 1000.4
20260509030006 61 310 0.0 0.0 0.00 0.00 0.00 37 1000.4
20260509025506 61 310 0.0 0.0 0.00 0.00 0.00 36 1000.4
20260509025006 61 310 0.0 0.9 0.00 0.00 0.00 37 1000.3
20260509024005 62 311 0.9 1.7 0.00 0.00 0.00 35 1000.2
20260509023506 62 310 0.0 1.7 0.00 0.00 0.00 35 1000.2
20260509023006 62 310 0.9 2.6 0.00 0.00 0.00 35 1000.1
20260509022006 62 310 0.0 0.9 0.00 0.00 0.00 35 1000.1
20260509021505 63 311 0.0 0.9 0.00 0.00 0.00 35 1000.0
20260509021006 63 310 0.0 0.9 0.00 0.00 0.00 34 1000.0
20260509020506 63 310 0.0 0.9 0.00 0.00 0.00 33 999.9
20260509015006 65 310 0.9 1.7 0.00 0.00 0.00 32 999.8
20260509014506 65 311 0.0 1.7 0.00 0.00 0.00 32 999.8
20260509014006 65 311 0.9 1.7 0.00 0.00 0.00 31 999.8
20260509013005 66 310 0.0 2.6 0.00 0.00 0.00 31 999.8
20260509012506 66 311 1.7 4.3 0.00 0.00 0.00 31 999.6
20260509012006 67 289 0.9 4.3 0.00 0.00 0.00 31 999.6
20260509011506 67 273 0.9 2.6 0.00 0.00 0.00 31 999.6
20260509011005 67 296 0.9 4.3 0.00 0.00 0.00 31 999.6
20260509010506 67 298 1.7 2.6 0.00 0.00 0.00 31 999.6
20260509010005 67 334 1.7 2.6 0.00 0.00 0.00 32 999.6
20260509005505 68 231 1.7 7.0 0.00 0.00 0.00 31 999.6
20260509005005 68 256 0.9 1.7 0.00 0.00 0.00 32 999.6
20260509004506 68 258 1.7 2.6 0.00 0.00 0.00 32 999.5
20260509004006 68 292 0.9 2.6 0.00 0.00 0.00 32 999.4
20260509003506 68 275 0.9 2.6 0.00 0.00 0.00 32 999.4
20260509003007 69 221 1.7 2.6 0.00 0.00 0.00 31 999.5
20260509002506 69 213 1.7 5.2 0.00 0.00 0.00 30 999.5
20260509002006 69 290 1.7 4.3 0.00 0.00 0.00 31 999.6
20260509001005 69 229 1.7 6.1 0.00 0.00 0.00 31 999.6
20260509000506 69 223 1.7 6.1 0.00 0.00 0.00 30 999.7
20260508235505 69 222 1.7 5.2 0.00 0.00 0.00 30 999.8
20260508235006 69 300 0.9 2.6 0.00 0.00 0.00 31 999.8
20260508234006 70 282 1.7 6.1 0.00 0.00 0.00 29 999.7
20260508233506 70 233 2.6 6.1 0.00 0.00 0.00 29 999.8
20260508233006 70 212 2.6 12.2 0.00 0.00 0.00 29 999.8
20260508232505 69 286 2.6 12.2 0.00 0.00 0.00 29 999.9
20260508232005 70 212 2.6 6.1 0.00 0.00 0.00 29 999.9
20260508231506 70 308 2.6 7.8 0.00 0.00 0.00 29 999.9
20260508231006 70 326 2.6 10.4 0.00 0.00 0.00 29 999.9
20260508230505 70 245 2.6 10.4 0.00 0.00 0.00 29 1000.0
20260508230006 70 283 1.7 5.2 0.00 0.00 0.00 29 1000.0
20260508225506 70 238 1.7 4.3 0.00 0.00 0.00 27 1000.1
20260508224006 70 220 2.6 6.1 0.00 0.00 0.00 27 1000.1
20260508223506 70 191 2.6 4.3 0.00 0.00 0.00 26 1000.2
20260508223006 70 205 2.6 6.1 0.00 0.00 0.00 25 1000.1
20260508222006 70 189 3.5 6.1 0.00 0.00 0.00 26 1000.2
20260508221506 70 181 1.7 2.6 0.00 0.00 0.00 26 1000.4
20260508221006 70 177 2.6 6.1 0.00 0.00 0.00 26 1000.4
20260508220506 70 187 1.7 10.4 0.00 0.00 0.00 26 1000.4
20260508220005 70 284 1.7 2.6 0.00 0.00 0.00 25 1000.6
20260508215006 70 185 2.6 7.8 0.00 0.00 0.00 27 1000.7
20260508214505 69 171 4.3 10.4 0.00 0.00 0.00 27 1000.8
20260508214005 69 192 2.6 5.2 0.00 0.00 0.00 27 1000.9
20260508213505 69 215 2.6 6.1 0.00 0.00 0.00 25 1001.1
20260508213006 69 194 2.6 5.2 0.00 0.00 0.00 28 1001.1
20260508212506 69 215 1.7 2.6 0.00 0.00 0.00 26 1001.1
20260508212006 69 315 1.7 4.3 0.00 0.00 0.00 25 1001.2
20260508211505 69 248 1.7 2.6 0.00 0.00 0.00 24 1001.3
20260508211005 69 252 1.7 5.2 0.00 0.00 0.00 26 1001.3
20260508210506 69 244 1.7 7.0 0.00 0.00 0.00 27 1001.4
20260508210006 69 226 2.6 7.8 0.00 0.00 0.00 25 1001.5
20260508205505 69 183 1.7 2.6 0.00 0.00 0.00 26 1001.6
20260508204505 69 237 2.6 7.0 0.00 0.00 0.00 25 1001.8
20260508204006 70 265 1.7 4.3 0.00 0.00 0.00 24 1001.8
20260508203506 70 190 1.7 6.1 0.00 0.00 0.00 26 1001.8
20260508203006 70 297 2.6 6.1 0.00 0.00 0.00 27 1001.8
20260508202505 69 203 1.7 2.6 0.00 0.00 0.00 25 1001.9
20260508202006 69 237 2.6 7.0 0.00 0.00 0.00 25 1002.0
20260508201505 69 188 1.7 4.3 0.00 0.00 0.00 25 1002.0
20260508200505 69 205 1.7 2.6 0.00 0.00 0.00 26 1002.2
20260508200005 69 307 1.7 5.2 0.00 0.00 0.00 26 1002.3
20260508195005 69 342 1.7 5.2 0.00 0.00 0.00 27 1002.3
20260508194505 70 275 1.7 7.8 0.00 0.00 0.00 26 1002.5
20260508194005 70 267 1.7 7.8 0.00 0.00 0.00 26 1002.6
20260508193505 71 268 2.6 7.0 0.00 0.00 0.00 25 1002.7
20260508193005 71 272 1.7 7.0 0.00 0.00 0.00 24 1002.7
20260508192005 71 192 2.6 6.1 0.00 0.00 0.00 25 1002.8
20260508191506 71 169 2.6 6.1 0.00 0.00 0.00 23 1002.9
20260508191006 71 182 2.6 6.1 0.00 0.00 0.00 25 1003.1
20260508190505 71 191 3.5 6.1 0.00 0.00 0.00 26 1003.0
20260508190005 70 254 1.7 4.3 0.00 0.00 0.00 30 1003.1
20260508185505 70 273 2.6 7.8 0.00 0.00 0.00 26 1003.3
20260508185005 70 275 2.6 6.1 0.00 0.00 0.00 25 1003.3
20260508184006 71 236 1.7 6.1 0.00 0.00 0.00 25 1003.3
20260508183505 71 267 1.7 7.8 0.00 0.00 0.00 25 1003.4
20260508183006 70 236 2.6 7.8 0.00 0.00 0.00 25 1003.5
20260508182505 70 163 1.7 5.2 0.00 0.00 0.00 27 1003.5
20260508182006 70 173 0.9 4.3 0.00 0.00 0.00 27 1003.7
20260508181005 68 200 1.7 7.8 0.00 0.00 0.00 26 1003.9
20260508180506 68 252 2.6 5.2 0.00 0.00 0.00 27 1004.0
20260508174505 69 311 1.7 2.6 0.00 0.00 0.00 26 1004.4
20260508174005 69 197 1.7 5.2 0.00 0.00 0.00 27 1004.5
20260508173505 69 237 2.6 6.1 0.00 0.00 0.00 26 1004.6
20260508172506 67 172 2.6 5.2 0.00 0.00 0.00 30 1004.8
20260508172005 66 157 1.7 4.3 0.00 0.00 0.00 31 1004.9
20260508171505 66 214 2.6 4.3 0.00 0.00 0.00 28 1005.1
20260508170505 66 279 1.7 7.8 0.00 0.00 0.00 29 1005.3
20260508170005 66 270 1.7 2.6 0.00 0.00 0.00 29 1005.3
20260508165505 65 195 4.3 7.8 0.00 0.00 0.00 29 1005.3
20260508165005 65 207 2.6 6.1 0.00 0.00 0.00 29 1005.5
20260508164505 65 198 4.3 10.4 0.00 0.00 0.00 28 1005.3
20260508164006 66 172 4.3 7.8 0.00 0.00 0.00 28 1005.4
20260508163014 65 181 5.2 10.4 0.00 0.00 0.00 32 1005.6
20260508162505 64 183 4.3 10.4 0.00 0.00 0.00 30 1005.7
20260508162005 64 179 3.5 8.7 0.00 0.00 0.00 30 1005.7
20260508161005 63 209 1.7 2.6 0.00 0.00 0.00 30 1005.8
20260508160506 63 209 2.6 11.3 0.00 0.00 0.00 33 1005.9
20260508160005 63 179 6.1 11.3 0.00 0.00 0.00 31 1005.8
20260508155006 63 179 2.6 7.0 0.00 0.00 0.00 33 1006.0
20260508154505 63 205 2.6 7.0 0.00 0.00 0.00 33 1005.9
20260508154005 63 169 4.3 10.4 0.00 0.00 0.00 32 1006.0
20260508153505 62 180 3.5 10.4 0.00 0.00 0.00 34 1006.1
20260508153005 62 180 2.6 10.4 0.00 0.00 0.00 32 1006.2
20260508152006 62 177 2.6 7.0 0.00 0.00 0.00 34 1006.3
20260508151506 61 181 4.3 7.8 0.00 0.00 0.00 35 1006.4
20260508151005 61 171 4.3 7.8 0.00 0.00 0.00 34 1006.5
20260508150506 61 182 4.3 10.4 0.00 0.00 0.00 34 1006.6
20260508150006 61 168 5.2 10.4 0.00 0.00 0.00 32 1006.7
20260508145005 60 212 4.3 8.7 0.00 0.00 0.00 35 1006.8
20260508144005 59 181 4.3 10.4 0.00 0.00 0.00 36 1006.9
20260508143506 58 173 5.2 11.3 0.00 0.00 0.00 35 1006.9
20260508143006 58 181 4.3 8.7 0.00 0.00 0.00 36 1006.9
20260508142505 57 177 5.2 10.4 0.00 0.00 0.00 36 1007.0
20260508142005 57 184 4.3 10.4 0.00 0.00 0.00 39 1007.0
20260508141505 56 178 4.3 10.4 0.00 0.00 0.00 39 1007.1
20260508141005 56 183 3.5 10.4 0.00 0.00 0.00 39 1007.1
20260508140505 55 177 4.3 8.7 0.00 0.00 0.00 39 1007.1
20260508140005 55 185 4.3 8.7 0.00 0.00 0.00 40 1007.1
20260508135505 54 176 4.3 10.4 0.00 0.00 0.00 40 1007.2
20260508135005 54 165 5.2 10.4 0.00 0.00 0.00 40 1007.2
20260508134505 53 186 4.3 8.7 0.00 0.00 0.00 42 1007.2
20260508134005 53 172 4.3 8.7 0.00 0.00 0.00 43 1007.2
20260508133505 52 185 2.6 7.8 0.00 0.00 0.00 45 1007.2
20260508133005 52 175 4.3 7.0 0.00 0.00 0.00 45 1007.3
20260508132505 51 180 3.5 7.0 0.00 0.00 0.00 47 1007.4
20260508132005 50 168 2.6 7.0 0.00 0.00 0.00 47 1007.3
20260508131505 50 183 3.5 7.8 0.00 0.00 0.00 48 1007.4
20260508131006 49 170 2.6 6.1 0.00 0.00 0.00 49 1007.4
20260508130505 48 172 2.6 6.1 0.00 0.00 0.00 51 1007.5
20260508130005 47 176 2.6 5.2 0.00 0.00 0.00 52 1007.5
20260508125514 47 147 1.7 4.3 0.00 0.00 0.00 54 1007.5
20260508125006 46 152 1.7 2.6 0.00 0.00 0.00 54 1007.5
20260508124505 45 165 1.7 2.6 0.00 0.00 0.00 54 1007.5
20260508124005 45 165 0.9 2.6 0.00 0.00 0.00 55 1007.5
20260508123505 44 165 0.9 2.6 0.00 0.00 0.00 55 1007.5
20260508123005 44 165 1.7 5.2 0.00 0.00 0.00 55 1007.5
20260508122505 43 161 0.9 5.2 0.00 0.00 0.00 57 1007.5
20260508122005 42 155 1.7 2.6 0.00 0.00 0.00 57 1007.5
20260508121505 42 155 1.7 2.6 0.00 0.00 0.00 57 1007.5
20260508121005 41 155 0.9 2.6 0.00 0.00 0.00 59 1007.4
20260508120505 41 155 0.9 2.6 0.00 0.00 0.00 59 1007.4
20260508120005 40 155 1.7 2.6 0.00 0.00 0.00 59 1007.4
20260508115505 40 155 0.9 2.6 0.00 0.00 0.00 59 1007.3
20260508115005 39 155 0.9 2.6 0.00 0.00 0.00 59 1007.4
20260508114505 39 155 0.9 2.6 0.00 0.00 0.00 61 1007.4
20260508114006 39 155 0.9 2.6 0.00 0.00 0.00 60 1007.4
20260508113505 39 155 0.9 2.6 0.00 0.00 0.00 61 1007.4
20260508113006 39 155 0.9 2.6 0.00 0.00 0.00 61 1007.5
20260508112505 39 155 0.9 1.7 0.00 0.00 0.00 62 1007.4
20260508112005 39 155 0.9 1.7 0.00 0.00 0.00 60 1007.4
20260508111505 39 155 0.9 1.7 0.00 0.00 0.00 61 1007.4
20260508111006 39 155 0.0 1.7 0.00 0.00 0.00 59 1007.4
20260508110505 39 155 0.0 1.7 0.00 0.00 0.00 59 1007.5
20260508105505 39 155 0.0 0.9 0.00 0.00 0.00 57 1007.5
20260508105005 39 155 0.0 1.7 0.00 0.00 0.00 57 1007.5
20260508104504 40 155 0.9 1.7 0.00 0.00 0.00 58 1007.5
20260508104005 40 155 0.0 1.7 0.00 0.00 0.00 58 1007.4
20260508103506 40 155 0.9 2.6 0.00 0.00 0.00 58 1007.5
20260508103005 40 155 0.9 1.7 0.00 0.00 0.00 58 1007.4
20260508102505 40 155 0.9 1.7 0.00 0.00 0.00 57 1007.5
20260508102005 41 155 0.9 1.7 0.00 0.00 0.00 58 1007.5
20260508101505 41 155 0.9 2.6 0.00 0.00 0.00 57 1007.5
20260508101005 40 155 0.9 2.6 0.00 0.00 0.00 56 1007.5
20260508100505 40 156 0.9 2.6 0.00 0.00 0.00 58 1007.6
20260508100005 40 150 0.9 2.6 0.00 0.00 0.00 58 1007.6
20260508095505 40 150 1.7 2.6 0.00 0.00 0.00 57 1007.7
20260508095005 40 150 0.9 2.6 0.00 0.00 0.00 58 1007.7
20260508094506 40 148 1.7 2.6 0.00 0.00 0.00 58 1007.7
20260508094005 39 148 0.9 2.6 0.00 0.00 0.00 58 1007.7
20260508093507 39 148 0.9 2.6 0.00 0.00 0.00 59 1007.7
20260508093007 39 148 0.9 2.6 0.00 0.00 0.00 60 1007.7
20260508092006 38 148 0.9 2.6 0.00 0.00 0.00 64 1007.7
20260508090507 38 148 0.0 0.9 0.00 0.00 0.00 64 1007.7
20260508090007 38 148 0.0 0.0 0.00 0.00 0.00 65 1007.8
20260508085006 38 148 0.0 0.9 0.00 0.00 0.00 64 1007.9
20260508084506 38 148 0.0 0.9 0.00 0.00 0.00 66 1007.9
20260508084006 38 148 0.0 0.9 0.00 0.00 0.00 67 1007.9
20260508083506 38 148 0.0 0.9 0.00 0.00 0.00 67 1007.9
20260508083009 38 148 0.0 0.0 0.00 0.00 0.00 65 1007.9
20260508082506 38 148 0.0 0.0 0.00 0.00 0.00 63 1007.9
20260508082006 38 148 0.0 0.0 0.00 0.00 0.00 63 1008.0
20260508081507 37 148 0.0 1.7 0.00 0.00 0.00 66 1008.1
20260508081007 37 146 0.0 1.7 0.00 0.00 0.00 67 1008.1
20260508080506 37 306 0.0 1.7 0.00 0.00 0.00 69 1008.2
20260508080006 37 306 0.0 0.0 0.00 0.00 0.00 69 1008.2
20260508075506 37 306 0.0 0.0 0.00 0.00 0.00 70 1008.2
20260508075006 37 306 0.0 0.0 0.00 0.00 0.00 70 1008.2
20260508074506 37 306 0.0 0.0 0.00 0.00 0.00 70 1008.2
20260508074007 37 306 0.0 0.0 0.00 0.00 0.00 71 1008.2
20260508073506 37 306 0.0 0.0 0.00 0.00 0.00 70 1008.3
20260508073006 37 306 0.0 0.0 0.00 0.00 0.00 71 1008.3
20260508072506 37 306 0.0 0.0 0.00 0.00 0.00 73 1008.4
20260508072006 37 306 0.0 0.0 0.00 0.00 0.00 72 1008.4
20260508071507 37 306 0.0 0.0 0.00 0.00 0.00 70 1008.4
20260508071007 38 306 0.0 0.0 0.00 0.00 0.00 66 1008.4
20260508070506 38 306 0.0 0.0 0.00 0.00 0.00 65 1008.5
20260508070007 38 306 0.0 0.0 0.00 0.00 0.00 65 1008.5
20260508065506 38 306 0.0 0.0 0.00 0.00 0.00 66 1008.6
20260508065006 38 306 0.0 0.0 0.00 0.00 0.00 65 1008.6
20260508064006 38 306 0.0 0.0 0.00 0.00 0.00 66 1008.6
20260508063506 38 306 0.0 0.0 0.00 0.00 0.00 67 1008.7
20260508062006 38 306 0.0 0.0 0.00 0.00 0.00 67 1008.8
20260508061506 38 306 0.0 0.0 0.00 0.00 0.00 69 1008.8
20260508061007 39 306 0.0 0.0 0.00 0.00 0.00 71 1008.9
20260508060006 39 306 0.0 0.0 0.00 0.00 0.00 71 1008.9
20260508055506 39 306 0.0 0.0 0.00 0.00 0.00 70 1009.0
20260508055007 40 306 0.0 0.0 0.00 0.00 0.00 67 1008.9
20260508054506 40 306 0.0 0.0 0.00 0.00 0.00 64 1009.0
20260508054007 40 306 0.0 0.0 0.00 0.00 0.00 63 1009.0
20260508052506 40 306 0.0 0.0 0.00 0.00 0.00 62 1009.2
20260508052006 40 306 0.0 0.0 0.00 0.00 0.00 64 1009.1
20260508051506 40 306 0.0 0.0 0.00 0.00 0.00 64 1009.2
20260508051006 40 306 0.0 0.0 0.00 0.00 0.00 61 1009.1
20260508050506 40 306 0.0 0.0 0.00 0.00 0.00 62 1009.2
20260508050006 40 306 0.0 0.0 0.00 0.00 0.00 62 1009.2
20260508045506 41 306 0.0 0.0 0.00 0.00 0.00 63 1009.3
20260508045006 41 306 0.0 0.0 0.00 0.00 0.00 62 1009.2
20260508044506 40 306 0.0 0.0 0.00 0.00 0.00 61 1009.2
20260508044006 41 306 0.0 0.0 0.00 0.00 0.00 57 1009.2
20260508043506 41 306 0.0 0.0 0.00 0.00 0.00 56 1009.2
20260508043014 41 306 0.0 0.0 0.00 0.00 0.00 55 1009.3